Theta_e
279 278 278 277 277 278 279 281 282 282 283 285 286 288 289 291 293 296 296 298 311 315 319 320 322 325 324 324 322 323 320 321 320 318 319 319 318 316 314 310 312 315 314
276 276 277 277 276 276 277 278 279 281 282 284 285 287 289 290 292 296 297 296 309 315 316 315 319 323 324 323 323 323 321 320 321 319 318 318 316 315 312 311 313 310 311
276 276 276 276 276 276 277 277 278 280 281 283 285 287 289 290 291 295 299 297 308 313 316 317 318 320 323 322 323 323 323 322 323 322 321 318 314 313 312 310 307 308 307
276 276 277 277 277 278 278 279 279 279 280 282 285 288 289 290 291 295 299 303 308 312 315 314 319 321 322 322 323 323 323 322 321 321 317 315 313 312 310 308 307 305 303
276 277 278 279 280 280 280 280 279 279 280 282 285 287 289 290 291 294 298 299 308 310 312 314 318 320 322 324 324 323 323 320 319 317 314 313 311 309 309 307 306 303 302
277 277 278 281 283 284 283 282 279 281 282 282 285 288 289 293 292 294 296 296 304 309 312 314 316 319 321 323 323 322 321 320 318 317 314 313 312 309 307 306 304 302 301
278 279 280 284 289 291 287 284 281 283 281 284 286 288 290 293 294 296 296 295 302 309 310 313 314 316 319 320 320 321 320 320 320 319 318 314 312 308 306 303 302 303 305
279 280 282 286 290 292 290 287 286 284 284 285 287 289 291 295 296 297 298 298 303 309 309 313 314 317 317 319 319 318 316 316 315 314 314 313 311 309 308 306 304 307 306
279 280 282 284 287 291 291 290 289 288 287 287 289 290 293 296 297 297 298 303 302 308 310 311 314 316 318 319 318 316 313 311 311 310 309 309 308 308 307 306 307 307 303
279 279 282 283 285 289 291 291 290 290 291 291 291 292 295 297 299 296 297 302 305 306 310 310 313 315 317 317 316 315 313 310 309 308 307 306 307 307 307 308 309 308 304
282 282 283 284 284 285 289 292 292 292 293 295 294 295 297 299 300 300 301 301 302 306 309 310 312 313 316 315 313 314 312 310 309 307 306 307 307 307 306 306 305 307 305
285 285 284 283 284 285 286 288 291 294 295 295 295 296 299 299 299 299 300 302 304 307 308 308 309 311 310 309 309 309 309 309 307 305 305 305 305 306 306 306 306 305 304
282 285 286 286 283 284 286 286 287 289 290 290 291 294 296 297 298 299 300 300 304 306 309 308 308 306 307 305 307 307 307 304 303 303 303 303 304 304 305 305 305 305 304
282 281 284 286 286 285 282 285 286 287 288 288 289 290 291 294 294 295 297 299 303 305 304 303 302 303 303 304 304 304 302 301 302 302 303 304 304 304 304 305 304 303 302
282 283 282 283 286 285 284 282 284 286 287 288 288 289 291 291 292 294 296 299 301 302 302 302 301 301 301 301 301 301 301 301 302 302 303 303 303 303 303 302 303 302 301
282 282 282 282 282 284 287 286 286 286 286 287 288 290 291 293 295 295 294 296 298 299 300 300 299 300 300 300 301 301 302 303 303 304 304 302 300 301 300 299 299 299 299
281 281 281 282 281 282 283 284 286 289 289 287 286 288 290 291 295 297 298 298 298 301 298 297 297 298 298 299 300 301 301 301 301 300 301 300 300 300 299 298 297 298 297
282 281 281 280 281 281 281 282 283 284 285 287 289 290 290 291 293 294 295 297 296 297 296 295 294 295 296 297 298 298 298 298 299 299 299 299 298 299 297 297 296 297 297
281 281 281 281 281 281 282 281 281 281 282 283 285 287 289 290 291 292 293 293 292 291 292 293 293 294 295 296 296 297 297 297 297 297 297 297 297 297 296 296 296 296 297
280 280 281 281 282 282 281 281 282 282 282 282 282 283 285 287 288 288 289 289 288 288 289 290 291 292 293 294 294 295 296 296 296 296 297 296 296 296 296 296 296 296 296
280 280 280 281 281 281 281 281 282 281 282 281 281 281 283 284 284 285 286 286 287 287 287 288 288 289 290 291 292 292 293 294 294 294 295 295 295 296 295 295 295 295 295
279 279 280 280 280 281 281 280 280 280 280 281 281 281 281 282 283 283 284 285 286 286 287 288 288 289 289 290 290 290 290 291 291 292 292 292 293 293 293 293 293 293 293
279 279 279 279 279 279 279 280 280 280 280 280 280 280 281 281 281 281 282 283 283 284 285 286 286 287 287 288 289 289 289 289 289 290 290 290 291 291 291 291 291 291 291
279 279 279 279 279 279 279 279 279 279 279 280 280 280 280 280 280 280 280 281 282 282 283 284 284 285 285 286 286 287 288 288 289 289 289 289 289 289 289 289 289 289 289
279 279 279 278 279 279 279 279 279 278 279 279 279 279 280 280 280 280 280 280 280 280 281 282 283 283 284 284 285 285 286 287 288 288 288 288 288 288 288 288 288 288 288
277 277 278 278 278 278 278 278 279 279 279 278 278 278 279 279 279 279 280 280 280 280 280 281 282 282 283 283 284 284 285 285 286 287 287 287 288 287 287 287 287 287 287
Wind_Speed
39 38 40 41 41 42 44 46 46 45 43 43 46 45 45 45 43 39 38 37 35 43 42 44 55 48 48 47 45 42 21 33 28 40 46 45 46 46 42 41 42 45 39
40 38 37 39 39 41 44 44 42 43 42 42 43 43 45 46 45 41 38 38 38 48 46 49 46 45 46 51 48 48 35 31 44 38 46 53 46 45 48 49 42 35 35
36 35 37 39 39 41 42 40 40 42 40 44 40 43 43 44 46 43 35 34 41 48 46 46 50 48 46 48 51 50 48 47 45 53 45 46 46 47 47 47 48 41 35
34 33 35 37 37 39 40 41 41 42 41 42 44 42 43 43 44 45 38 32 40 43 49 47 47 48 43 53 52 51 54 52 53 47 37 39 43 46 49 52 47 40 36
37 35 34 33 32 33 36 38 39 38 41 40 42 47 42 42 44 48 44 38 38 49 45 42 46 47 47 48 49 53 55 52 49 43 34 38 43 48 53 51 49 45 41
39 42 42 37 29 28 32 35 38 37 40 39 39 41 44 38 45 47 46 39 38 52 45 45 45 46 45 47 49 48 49 51 46 42 42 40 43 48 55 54 51 47 40
42 45 45 36 20 18 22 28 33 35 36 40 40 42 43 41 43 40 43 44 48 47 50 47 46 49 48 47 43 41 40 42 39 37 41 42 44 50 56 54 52 50 46
45 49 50 37 15 3 13 18 23 29 34 36 37 45 45 41 46 39 39 43 46 49 51 47 47 50 47 45 44 42 39 37 34 34 31 33 36 40 45 56 53 48 45
47 50 51 45 28 1 7 13 18 22 26 33 34 41 47 39 46 45 39 42 43 49 49 47 45 47 48 46 44 41 39 35 31 26 24 23 23 35 43 50 49 46 40
46 47 49 47 38 25 11 13 16 19 21 25 30 40 43 31 36 42 38 40 48 50 50 50 49 48 48 48 45 43 39 38 35 32 30 29 33 36 43 46 48 46 44
47 48 49 51 48 38 30 25 22 21 23 24 29 35 31 31 30 34 40 45 48 53 51 50 50 49 47 47 46 43 41 43 38 35 33 32 30 27 28 33 31 34 38
47 48 52 53 54 49 43 37 32 28 22 18 17 20 27 28 29 34 43 43 54 54 52 51 49 44 42 42 44 43 45 46 43 43 39 35 32 30 26 23 22 25 29
47 49 49 52 56 54 53 49 44 36 32 29 27 27 29 30 34 29 37 47 51 47 48 47 42 37 35 38 39 43 44 50 47 41 37 33 30 28 26 27 27 27 28
46 48 49 49 51 54 54 52 51 44 37 34 34 35 37 30 30 39 46 48 50 47 44 43 43 41 41 38 40 44 48 47 47 42 37 32 31 29 29 29 27 28 28
44 45 47 47 45 47 50 52 53 54 46 43 45 45 42 38 36 44 48 51 54 53 50 46 44 42 40 39 41 43 44 42 41 38 37 39 38 40 37 37 36 35 32
41 43 43 43 44 45 43 44 45 50 52 50 48 46 45 44 44 50 53 54 53 52 50 47 45 42 40 38 37 38 39 38 37 37 36 32 33 33 34 34 31 31 32
36 37 38 39 39 41 44 45 45 41 43 47 45 43 41 38 43 43 43 45 46 47 48 44 42 40 39 38 36 34 32 30 29 29 32 33 33 33 34 33 32 31 30
30 33 34 34 34 35 37 38 42 45 44 43 40 41 37 37 39 38 38 38 45 45 45 44 40 39 36 34 31 30 27 25 23 23 24 26 28 30 31 31 31 30 30
24 27 28 29 30 32 33 35 37 39 42 42 39 37 37 34 37 41 41 46 44 41 37 35 31 31 31 29 29 28 26 24 23 21 21 23 25 27 30 30 29 27 27
20 22 23 24 26 28 30 32 32 34 36 38 40 37 35 37 41 41 41 41 40 39 36 34 31 29 26 24 23 23 24 22 21 20 21 21 21 22 23 25 26 25 25
15 17 19 19 22 23 25 27 28 29 30 32 34 32 30 34 35 35 34 34 33 33 32 30 28 28 26 24 23 22 21 21 19 19 18 18 19 20 20 21 22 22 23
12 12 13 15 16 16 19 20 20 21 23 24 25 25 24 27 28 28 28 29 28 27 26 25 24 24 22 22 21 20 19 18 18 16 17 16 16 17 19 19 20 21 22
10 9 9 10 12 13 13 13 14 15 16 17 18 18 18 20 21 21 22 22 22 21 21 21 20 20 19 18 17 17 17 16 16 13 12 14 15 15 16 17 19 21 23
8 8 9 8 8 7 8 9 9 9 10 11 11 12 12 12 13 14 15 15 16 17 17 17 17 15 15 15 14 14 13 13 14 14 13 12 11 13 14 15 18 20 22
7 8 8 7 7 7 6 5 4 4 5 5 6 6 7 7 7 8 8 9 11 12 12 13 13 13 12 11 10 10 10 10 10 10 11 13 12 12 12 14 16 20 22
5 6 8 9 8 5 5 5 5 5 3 1 1 2 3 3 3 3 3 4 5 6 6 7 8 9 9 8 8 8 8 7 8 9 10 10 10 12 13 14 16 19 21
Wind_Direction
303 296 289 282 276 270 265 259 253 250 245 244 243 241 238 234 228 230 229 228 227 222 211 217 221 216 213 209 209 194 187 217 217 211 205 212 210 214 213 202 205 211 213
309 301 290 282 275 268 263 259 255 248 241 240 240 239 237 233 227 225 229 225 221 217 216 217 219 220 214 214 210 205 207 211 218 217 211 216 213 203 202 202 208 206 205
314 305 296 286 276 267 262 255 248 243 237 237 233 231 231 230 228 221 224 225 219 216 215 216 218 214 210 209 207 208 206 212 211 220 218 217 217 212 203 202 206 202 199
322 313 301 290 278 268 260 255 248 241 236 230 227 227 229 227 225 217 218 218 226 218 218 218 222 215 209 208 209 207 212 216 211 213 217 210 212 207 203 203 197 197 194
331 324 319 311 294 272 254 244 239 233 226 223 226 222 224 226 220 214 219 218 224 223 223 219 218 216 213 215 210 211 213 214 211 211 214 208 207 203 199 199 195 191 193
344 340 334 326 307 271 247 235 227 226 222 217 217 219 218 219 216 212 218 218 221 221 220 217 217 221 218 217 218 218 220 212 209 209 213 216 213 207 202 199 197 187 189
0 355 353 351 325 261 230 222 220 218 213 214 211 211 215 212 209 212 216 217 216 219 222 221 223 219 215 215 215 219 219 220 226 224 219 218 217 209 205 198 196 193 196
13 8 11 16 12 342 200 206 210 208 207 204 211 209 211 211 207 207 212 216 217 221 224 220 221 217 214 209 208 208 209 214 214 220 226 224 222 217 214 208 202 202 205
22 17 19 24 38 169 169 180 187 193 200 208 210 208 204 212 210 209 211 216 215 218 221 227 219 220 211 210 207 201 199 204 204 207 213 221 227 216 209 202 198 200 195
25 24 33 32 39 72 150 181 183 189 195 207 210 203 204 214 217 211 212 214 211 215 218 221 219 212 209 208 200 196 194 193 189 188 201 213 219 214 211 211 213 208 199
34 41 47 44 39 51 86 128 164 178 183 178 192 203 212 217 219 213 211 213 216 213 211 214 213 209 213 205 199 196 196 184 183 183 180 174 175 176 186 200 209 214 206
34 46 49 49 44 44 61 82 109 134 158 170 196 201 206 216 221 215 208 211 214 214 213 205 202 204 200 193 193 197 191 190 186 181 179 180 179 177 176 183 190 200 206
36 43 49 56 54 47 49 53 67 89 102 111 121 145 170 179 185 200 215 214 214 209 209 195 186 182 182 191 191 194 187 182 177 171 172 176 181 186 186 194 197 205 212
36 40 48 50 57 58 50 50 50 58 69 78 83 97 111 133 157 170 182 187 199 189 170 165 164 169 174 177 182 181 179 179 182 183 185 191 197 202 202 203 207 208 206
37 41 43 50 55 59 61 57 56 57 59 64 68 80 90 102 120 136 148 154 154 153 152 148 150 156 162 171 178 179 181 186 192 199 208 214 221 220 223 220 216 208 202
38 40 44 47 50 57 63 64 70 73 67 66 76 85 91 102 119 122 124 130 133 134 133 136 141 146 151 155 160 172 187 197 204 207 207 205 200 195 195 194 200 198 196
34 41 43 48 53 56 57 59 64 64 67 75 74 82 87 96 102 106 110 120 126 128 122 124 127 134 137 142 148 154 160 170 177 186 188 185 187 188 189 187 189 192 191
31 36 40 44 51 58 63 67 69 70 67 66 72 78 79 89 97 103 110 112 106 108 110 112 115 118 122 126 132 136 141 149 158 170 174 179 182 182 181 181 185 185 181
34 35 36 39 43 52 57 65 70 73 76 77 78 80 87 90 95 99 100 99 101 102 106 109 111 112 114 119 122 124 127 133 139 146 155 168 173 176 175 176 178 178 174
25 33 37 36 38 41 47 55 59 61 67 71 69 67 77 83 81 83 87 92 95 96 97 100 106 114 122 127 129 132 132 132 135 141 150 160 166 172 175 176 179 177 179
24 22 27 32 42 40 43 44 44 50 59 66 73 70 66 73 78 81 85 88 90 93 97 101 104 104 107 112 119 127 135 140 147 153 155 161 166 171 177 182 184 184 185
11 21 24 28 34 39 44 47 51 54 57 61 65 70 70 73 76 77 80 82 85 89 91 94 96 97 101 106 109 113 119 128 135 143 150 159 165 174 179 185 188 190 189
347 359 16 21 23 32 35 41 44 49 54 59 60 61 64 71 77 80 82 84 86 89 92 92 92 97 101 105 113 120 123 126 130 136 146 160 165 170 175 185 190 190 190
327 336 345 353 3 17 25 27 32 42 48 49 61 71 76 74 77 82 87 90 91 93 97 101 103 102 104 109 115 120 125 130 138 145 146 148 156 167 173 182 187 188 188
305 308 314 320 325 331 342 358 12 31 39 38 41 48 57 66 73 81 89 96 99 98 96 99 106 113 118 120 120 123 130 136 146 152 158 157 160 167 175 183 187 188 190
267 276 284 294 298 294 294 301 305 305 308 312 356 20 26 39 71 89 87 84 85 90 94 98 100 104 110 117 126 135 132 140 159 169 172 174 174 178 182 185 191 192 192